Find Starlink 35983

NORAD ID: 66902 Int'l Des: 2025-283 Owner: SPXS Country: US Constellation: starlink operational
LEOCIRCULAR

リアルタイム位置

3D地球を読み込み中...

Starlink 35983について

説明を読み込み中...

次回通過

Passes for default location (London). Set your location on the main map for personalized predictions.

高度履歴

Loading altitude history...

軌道要素

1 66902U 25283AA 26106.50465705 .00007758 00000-0 27380-3 0 9990
2 66902 53.1589 208.5267 0001350 72.8979 287.2169 15.30197809 21637
Epoch: Apr 16, 2026 • Age: 21 hours

現在のステータス

高度 491.5 km
速度 7.62 km/s
衛星直下点 -45.40°S, 84.74°E
打ち上げ日 Dec 4, 2025
運用期間 0.3 years
タイプ internet

技術仕様

分類 Payload
質量 575.00 kg
乾燥質量 530.00 kg
総質量 575.00 kg
長さ 0.30 m
直径 4.10 m
スパン 29.00 m
形状 Box + pan
製造者 SPXS
バスタイプ Starlink V2MO
フェーズステータス In Orbit
所有者/国 SPXS/US

Most Searched